Probability
8 8 8 7 6 4 3 3 4 4 4 3 2 2 1 0 1 1 1 1 1 0 0 0 0 0 0 0 0 0 0 0 0 0 0 0 0 0 0 0 0 1 1
9 9 7 7 6 5 4 3 4 4 4 3 1 2 2 1 0 0 0 0 0 0 0 0 0 0 0 0 0 0 0 0 0 0 0 0 0 0 0 0 0 0 1
8 8 7 6 6 6 4 3 3 3 3 1 1 2 2 1 0 0 0 0 0 0 0 0 0 0 0 0 0 0 0 0 0 0 0 0 0 0 0 0 0 0 0
8 7 7 6 6 5 4 3 2 1 1 0 1 2 2 1 0 0 0 0 0 0 0 0 0 0 0 0 0 0 0 0 0 0 0 0 0 0 0 0 0 0 0
9 8 7 5 4 3 3 3 2 1 0 0 0 1 1 1 0 0 0 0 0 0 0 0 0 0 0 0 0 0 0 0 0 0 0 0 0 0 0 0 0 0 0
10 9 6 4 3 3 3 3 2 1 0 0 0 0 0 0 0 0 0 0 0 0 0 1 0 0 0 0 0 0 0 0 0 0 0 0 0 0 0 0 0 0 0
9 8 5 3 3 3 3 3 2 1 0 0 0 0 0 0 0 0 0 0 0 0 0 0 0 0 0 0 0 0 0 0 0 0 0 0 0 0 0 0 0 0 0
8 7 5 3 3 3 2 1 1 0 0 0 0 0 0 0 0 0 0 0 0 0 0 0 0 0 0 0 0 0 0 0 0 0 0 0 0 0 0 0 0 0 0
6 6 4 3 3 3 1 0 0 0 0 0 0 0 0 0 0 0 0 0 0 0 0 0 0 0 0 0 0 0 0 0 0 0 0 0 0 0 0 0 0 0 0
5 4 3 3 3 2 1 0 0 0 0 0 0 0 0 0 0 0 0 0 0 0 0 0 0 0 0 0 0 0 0 0 0 0 0 0 0 0 0 0 0 0 0
3 3 3 3 2 1 0 0 0 0 0 0 0 0 0 0 0 0 0 0 0 0 0 0 0 0 0 0 0 0 0 0 0 0 0 0 0 0 0 0 0 0 0
1 2 3 3 1 0 0 0 0 0 0 0 0 0 0 0 0 0 0 0 0 0 0 0 0 0 0 0 0 0 0 0 0 0 0 0 0 0 0 0 0 0 0
1 1 2 1 0 0 0 0 0 0 0 0 0 0 0 0 0 0 0 0 0 0 0 0 0 0 0 0 0 0 0 0 0 0 0 0 0 0 0 0 0 0 0
0 1 1 0 0 0 0 0 0 0 0 0 0 0 0 0 0 0 0 0 0 0 0 0 0 0 0 0 0 0 0 0 0 0 0 0 0 0 0 0 0 0 0
0 0 0 0 0 0 0 0 0 0 0 0 0 0 0 0 0 0 0 0 0 0 0 0 0 0 0 0 0 0 0 0 0 0 0 0 0 0 0 0 0 0 0
0 0 0 0 0 0 0 0 0 0 0 0 0 0 0 0 0 0 0 0 0 0 0 0 0 0 0 0 0 0 0 0 0 0 0 0 0 0 0 0 0 0 0
0 0 0 0 0 1 2 1 0 0 0 0 0 0 0 0 0 0 0 0 0 0 0 0 0 0 0 0 0 0 0 0 0 0 0 0 0 0 0 0 0 0 0
0 0 0 0 1 2 3 2 1 0 0 0 0 0 0 0 0 0 0 0 0 0 0 0 0 0 0 0 0 0 0 0 0 0 0 0 0 0 0 0 0 0 0
0 0 0 0 1 2 3 2 1 0 0 0 0 0 0 0 0 0 0 0 0 0 0 0 0 0 0 0 0 0 0 0 0 0 0 0 0 0 0 0 0 0 0
1 1 1 0 1 2 3 3 1 0 0 0 0 1 2 1 1 0 0 0 0 0 0 0 0 0 0 0 0 0 0 0 0 0 0 0 0 0 0 0 0 0 0
2 2 2 1 1 2 3 3 2 1 1 1 1 2 3 2 1 0 0 0 0 0 0 0 0 0 0 0 0 0 0 0 0 0 0 0 0 0 0 0 0 0 0
2 2 2 1 1 2 3 3 2 2 3 2 2 2 3 3 2 0 0 0 0 0 0 0 0 0 0 0 0 0 0 0 0 0 0 0 0 0 0 0 0 0 0
1 1 1 0 0 1 3 4 3 2 3 3 2 2 2 2 1 0 0 0 0 0 0 0 0 0 0 0 0 0 0 0 0 0 0 0 0 0 0 0 0 0 0
0 0 0 0 0 0 2 3 3 3 3 3 3 2 2 1 1 0 0 1 1 1 0 0 0 0 0 0 0 0 0 0 0 0 0 0 0 0 0 0 0 0 0
0 0 0 0 0 0 0 1 2 3 3 3 3 3 2 1 0 0 0 1 2 1 0 0 0 0 0 0 0 0 0 0 0 0 0 0 0 0 0 0 0 0 0
0 0 0 0 0 0 0 1 2 3 3 3 3 3 1 0 0 0 0 1 1 1 0 0 0 0 0 0 0 0 0 0 0 0 0 0 0 0 0 0 0 0 0
Wind_Speed
6 6 5 5 6 5 5 5 6 6 6 4 4 4 3 3 3 2 3 4 4 4 4 3 3 3 2 2 3 2 3 2 1 2 2 3 3 2 2 1 1 1 1
6 7 6 5 6 7 6 6 7 7 6 4 3 3 4 3 2 2 3 3 4 4 4 4 3 3 3 3 2 2 2 2 2 2 2 2 2 3 2 2 1 1 1
11 9 8 7 7 7 7 7 7 7 6 5 4 4 4 3 2 2 2 2 3 4 4 4 3 3 3 2 2 2 3 2 2 2 2 3 2 1 2 2 3 2 2
9 9 9 9 8 7 6 6 6 7 6 7 7 7 5 4 3 2 2 3 3 4 4 4 4 3 2 3 2 2 2 3 2 2 2 2 2 2 1 2 2 3 3
11 11 10 9 8 7 7 6 7 6 6 6 7 7 5 4 3 3 4 3 3 3 4 4 4 4 3 3 3 3 3 2 2 2 1 2 2 2 2 1 2 2 2
11 10 8 7 7 7 7 7 7 6 6 7 7 7 8 7 6 5 4 3 2 2 3 4 4 3 3 3 3 3 4 3 3 2 2 2 2 1 2 2 1 1 2
12 11 11 10 9 9 8 7 7 6 6 7 7 7 8 8 8 6 5 4 2 2 2 3 3 3 3 3 3 3 3 3 3 3 2 2 1 1 2 2 1 1 1
12 12 12 11 10 10 9 9 8 6 6 7 6 6 7 5 5 5 5 5 3 3 3 3 3 3 3 4 3 3 2 3 3 3 3 2 1 1 2 2 2 1 1
13 12 12 11 11 10 10 10 9 7 7 7 7 6 6 6 6 5 5 4 3 3 4 4 4 3 4 4 4 3 3 3 3 3 3 2 1 1 1 2 2 3 1
13 12 12 12 11 10 8 8 8 8 7 7 7 6 6 6 6 6 6 5 4 4 5 4 4 4 4 4 3 3 2 3 2 2 3 2 1 2 2 2 2 2 2
14 13 12 11 10 9 9 8 8 7 7 7 6 7 6 6 6 6 6 5 4 5 5 5 5 4 4 3 3 3 3 3 2 2 2 2 2 2 1 2 2 1 2
12 12 11 10 10 10 10 9 9 9 8 8 7 7 7 6 6 6 6 6 5 5 5 5 5 4 4 4 4 3 3 3 3 2 2 2 1 2 1 1 1 1 1
10 10 10 11 12 11 11 10 10 9 8 8 8 7 7 7 7 6 6 5 5 5 4 4 5 4 4 4 4 3 3 3 3 3 3 3 2 2 1 1 1 1 1
12 12 11 11 11 11 11 11 10 9 9 9 9 9 8 8 7 7 6 6 6 5 5 4 4 4 4 4 4 4 3 3 3 3 3 3 4 4 3 2 2 2 1
12 13 13 12 11 11 10 10 10 10 10 10 10 9 8 7 7 7 6 6 6 6 5 5 4 4 4 4 5 4 4 4 3 3 3 4 5 6 5 3 3 3 2
13 14 13 13 13 13 13 12 11 11 11 11 11 9 8 8 8 8 7 6 6 5 5 5 5 5 4 6 8 6 4 4 4 4 3 4 4 5 6 7 7 7 5
13 14 15 15 15 14 14 14 13 11 11 11 10 10 10 10 9 9 8 7 7 5 5 5 5 5 6 7 8 8 5 5 4 4 4 3 3 3 3 4 5 6 8
11 12 13 12 12 12 11 11 11 12 12 11 11 10 10 10 9 8 8 7 6 6 5 6 6 5 6 8 8 8 5 4 5 5 5 5 5 4 4 4 4 5 6
9 11 12 12 11 12 12 12 11 11 11 12 12 12 12 11 10 10 9 7 6 6 6 5 6 6 6 8 9 7 4 4 5 5 6 6 6 7 6 5 5 6 6
6 7 8 9 10 11 12 13 12 12 13 14 13 11 11 11 11 11 8 6 6 7 6 6 6 7 7 8 10 9 4 5 5 5 5 8 9 8 6 6 6 7 7
4 6 8 10 11 11 12 13 13 14 14 11 10 10 11 11 10 9 7 6 6 6 6 6 6 7 8 8 10 10 6 6 6 5 5 5 8 10 9 8 7 9 7
2 5 7 7 8 11 13 13 14 13 9 9 10 10 10 9 8 8 7 7 7 7 6 6 6 5 6 7 9 11 12 9 6 6 5 5 7 9 9 7 9 10 7
3 4 6 6 6 10 12 13 11 9 10 10 10 9 10 8 8 9 9 7 6 6 6 5 5 5 4 5 9 10 11 12 8 6 8 8 8 7 7 9 10 7 5
2 3 5 6 6 8 9 9 8 10 10 10 9 8 9 8 8 7 7 7 7 7 6 6 6 5 5 5 4 5 5 8 8 7 6 7 7 7 7 7 6 5 5
2 3 5 6 6 6 6 6 9 11 10 9 8 8 8 8 7 7 7 8 8 8 8 7 7 6 7 8 8 6 5 5 5 4 3 3 3 4 4 5 5 5 4
3 3 4 5 5 6 5 5 8 10 10 8 8 7 6 6 6 6 4 6 7 9 11 10 7 7 8 7 8 9 9 8 6 4 4 4 5 6 6 6 6 5 6
Wind_Direction
160 151 154 154 150 155 154 159 151 146 140 135 134 130 128 117 104 111 113 116 119 117 112 110 100 105 112 117 120 113 92 62 60 79 46 27 33 45 20 2 360 319 282
159 161 157 161 167 167 165 160 157 155 153 145 136 128 122 112 103 99 100 113 120 120 120 117 111 106 104 96 98 110 105 63 49 111 103 51 17 17 25 20 27 10 355
176 175 171 172 172 172 172 166 162 155 153 142 124 110 92 85 88 93 95 100 116 115 116 122 114 105 102 106 95 108 122 120 61 56 134 141 181 329 1 17 27 22 23
174 176 177 176 178 176 163 152 154 150 152 149 149 149 145 143 151 139 121 104 107 122 126 123 116 108 100 102 95 90 108 126 121 69 52 88 136 138 75 357 10 22 30
176 180 184 180 174 163 154 151 147 148 152 154 153 147 138 128 119 114 115 106 91 104 122 121 117 112 104 101 93 88 89 101 125 125 110 83 69 75 125 82 357 11 11
178 178 172 160 156 153 152 149 147 149 152 154 152 150 146 141 137 136 135 123 104 91 106 114 115 118 115 112 107 101 99 96 101 100 104 123 119 118 117 122 53 8 346
174 172 167 166 163 162 161 155 153 152 154 154 156 157 155 154 155 155 154 148 139 135 138 126 127 126 123 118 112 104 100 102 102 101 95 97 111 134 129 123 117 50 343
175 177 176 171 170 169 166 161 159 155 156 155 156 155 153 153 154 156 154 159 159 156 148 141 137 131 126 120 110 103 102 97 96 98 99 93 87 118 138 139 135 93 15
177 178 175 173 172 172 172 168 164 159 161 159 152 151 153 154 154 151 146 148 149 149 146 142 133 128 124 124 119 110 107 106 96 102 104 95 77 82 99 121 136 139 139
176 176 176 178 176 173 168 164 163 164 160 156 157 157 156 156 152 149 154 156 155 147 147 145 142 135 129 128 122 118 120 117 108 112 108 94 84 80 86 106 112 128 147
179 179 178 177 172 163 163 164 163 157 158 161 157 149 153 153 151 156 163 161 158 158 160 158 151 145 142 141 135 136 134 127 116 109 115 106 111 100 94 102 111 121 139
179 177 173 167 167 168 169 171 171 169 169 163 157 156 154 153 156 161 165 161 162 165 162 156 153 157 155 154 155 159 154 152 153 151 141 143 133 115 116 124 133 149 166
174 169 167 171 176 176 175 177 178 177 168 160 159 158 159 162 167 168 165 162 161 161 160 159 165 170 169 170 175 173 172 176 181 182 180 184 166 179 188 179 180 184 170
176 173 175 179 180 178 178 179 180 175 167 165 166 171 175 175 173 169 167 168 166 166 172 176 180 182 180 179 181 181 181 185 194 200 200 200 199 206 204 204 204 192 181
179 181 182 182 180 178 179 179 179 175 171 170 176 183 179 171 167 169 172 171 174 180 177 177 184 186 185 192 189 189 191 193 204 216 220 224 224 223 213 210 206 193 197
188 186 185 182 183 184 183 181 181 177 172 178 185 180 172 172 175 177 174 174 180 178 175 185 191 198 209 205 199 191 194 200 208 224 238 246 243 242 234 229 216 201 204
191 188 189 188 188 188 184 184 182 173 176 182 182 178 177 180 183 180 176 183 187 183 187 195 199 210 222 218 211 205 194 205 215 223 237 251 250 244 245 249 244 231 228
193 193 190 189 188 184 181 177 169 172 180 183 184 181 181 185 181 178 185 190 185 187 195 202 206 213 228 223 220 217 205 215 226 227 227 238 256 250 237 245 256 259 250
198 196 191 184 179 178 174 165 169 174 180 187 188 186 184 184 182 187 193 190 184 192 196 199 203 213 230 226 221 210 196 222 237 236 231 231 246 252 238 231 251 270 274
196 190 179 170 172 175 165 165 174 178 189 194 193 186 183 184 188 192 189 182 187 200 200 208 209 213 226 228 222 206 201 224 241 244 239 235 238 245 232 221 232 255 267
193 175 167 173 178 168 164 173 179 192 197 190 181 178 182 186 187 183 178 177 185 193 202 214 219 220 226 231 226 210 202 219 235 245 247 240 232 239 239 226 228 241 254
174 166 166 174 170 166 169 179 193 196 180 171 174 179 180 184 183 176 179 179 183 193 206 215 229 231 230 229 229 219 215 215 224 241 247 245 240 242 244 237 236 244 249
167 160 163 163 164 170 175 187 194 169 160 166 176 178 177 181 175 178 181 179 185 197 208 211 226 237 231 230 231 230 226 222 223 240 243 250 254 254 252 246 246 245 237
154 143 147 155 168 174 179 185 165 155 159 169 174 173 175 179 178 180 183 186 191 199 207 212 223 232 233 231 226 222 225 225 228 243 251 253 254 249 254 259 250 234 229
120 137 149 157 167 162 163 160 153 153 160 165 168 172 178 178 182 187 191 195 201 198 199 210 212 216 232 233 216 207 214 213 213 205 228 242 246 251 251 251 251 242 231
89 102 125 134 143 140 142 146 151 156 156 161 166 172 176 176 179 184 195 212 212 212 213 215 211 221 227 228 215 216 223 223 196 179 224 238 242 249 254 257 259 248 240